Theta_e
340 340 340 347 348 349 349 350 349 349 349 348 347 347 347 347 347 347 346 346 346 345 345 345 345 342 340 341 341 340 340 339 339 341 347 347 347 344 342 341 340 340 340 339 339 342 343 341 342 342 342 342 340 339 338 339 339 337 337 339 340 341 341 341 340 340 340 340 341 340 342 344 344 345 344 345 344 344 341 341 341 338 337 340 342
338 339 341 344 349 349 349 350 350 349 348 348 347 347 347 346 347 346 346 346 346 345 345 344 344 344 343 341 340 340 339 340 340 346 347 347 346 343 343 341 339 339 339 339 339 341 342 343 342 343 343 343 340 339 339 338 337 336 336 338 339 340 340 339 339 340 339 339 338 337 337 339 341 342 344 344 344 342 340 340 340 336 335 340 340
341 342 341 344 349 350 348 349 350 349 348 348 347 347 347 347 347 346 346 346 346 346 344 343 342 341 343 343 342 340 340 342 344 346 346 346 344 342 341 340 339 338 338 339 340 339 340 341 342 342 343 340 340 339 339 338 337 335 336 338 339 339 339 339 338 338 338 339 337 338 339 338 337 339 342 342 342 342 340 339 338 338 335 341 339
341 344 341 344 346 348 349 349 349 348 347 347 347 347 347 346 346 346 346 346 346 345 344 344 343 342 342 341 341 340 343 346 346 347 347 346 343 340 339 339 339 338 338 340 340 340 340 340 341 341 340 338 339 339 338 336 336 336 336 339 340 340 340 339 338 338 337 336 335 334 332 330 333 337 338 339 339 339 339 339 339 338 338 339 339
342 344 341 343 344 346 349 349 348 347 347 348 348 347 347 346 346 346 346 346 346 345 344 344 343 342 341 341 341 342 347 347 347 347 346 345 342 340 339 339 338 338 338 339 339 339 339 340 340 340 339 337 341 340 339 338 337 336 337 339 340 340 340 340 339 338 337 336 334 330 325 329 331 336 339 338 338 337 337 338 338 338 340 339 340
343 344 342 340 341 344 348 349 348 348 348 348 347 347 346 346 346 346 346 345 344 344 344 343 343 342 342 341 340 339 344 346 346 345 344 345 341 339 339 339 338 338 337 339 340 339 338 340 340 341 340 340 341 341 341 340 340 340 340 339 340 340 340 339 339 338 336 335 333 328 326 327 331 335 340 341 341 340 339 340 340 340 340 340 340
343 344 342 341 342 343 346 349 349 348 348 348 347 347 346 346 346 345 346 345 344 344 343 343 343 342 342 341 340 340 343 344 345 345 345 343 340 339 338 338 337 338 338 339 339 339 339 340 340 340 341 341 341 340 339 340 340 341 340 341 340 339 339 338 338 337 335 332 328 329 329 331 334 334 341 341 342 340 339 340 340 341 339 341 340
344 342 340 341 342 343 346 349 349 348 348 348 347 347 346 346 345 345 346 345 344 344 343 343 343 342 342 341 341 340 340 342 344 344 343 342 341 339 339 338 338 338 337 337 338 339 339 340 342 342 341 340 341 341 340 340 340 341 340 340 340 339 338 337 336 336 335 329 329 330 330 331 332 334 340 339 341 341 340 341 340 340 339 339 336
342 342 341 341 341 343 346 348 349 349 348 348 347 347 346 346 345 345 346 345 344 344 344 343 342 342 342 341 341 340 340 341 342 342 342 341 340 338 338 338 337 337 336 337 338 338 339 339 340 340 341 340 340 340 340 340 340 341 340 339 339 338 337 336 335 333 331 330 330 330 330 331 331 333 340 341 341 341 339 338 338 338 339 336 336
342 341 340 340 341 342 344 348 349 349 348 347 347 346 346 345 345 345 345 345 344 344 344 343 342 342 341 341 341 340 339 339 338 340 340 340 339 337 337 337 336 336 337 338 339 340 339 339 340 339 340 339 340 340 340 340 339 340 339 339 338 338 337 336 334 332 329 329 330 332 333 335 333 334 338 343 341 340 337 334 335 335 334 335 335
342 341 340 340 340 342 346 349 348 348 348 347 347 346 346 345 345 345 345 344 344 343 343 343 342 342 341 341 340 339 339 338 338 338 338 337 337 336 336 336 336 336 337 337 338 338 339 339 339 339 339 338 339 339 338 338 338 338 338 338 337 336 335 334 332 327 328 328 329 329 333 336 333 331 340 341 340 337 334 335 334 335 334 334 336
342 342 340 339 343 342 346 347 348 348 348 347 347 346 346 345 345 345 345 344 344 344 343 342 342 342 341 341 339 339 338 337 336 336 336 336 336 336 336 335 335 335 335 336 336 337 338 339 339 338 338 337 337 337 337 337 337 337 336 336 335 334 333 332 328 327 327 328 329 329 329 331 331 333 338 337 339 337 335 335 335 335 337 337 337
341 342 341 339 340 340 344 346 347 348 348 347 347 347 346 345 345 345 345 344 344 343 343 342 342 341 340 339 338 337 337 337 336 336 336 335 336 335 336 335 335 335 335 336 336 336 337 338 337 338 337 336 336 336 336 336 336 335 334 334 333 332 331 330 326 327 327 327 328 329 330 331 333 336 336 338 337 335 337 335 336 336 334 335 335
341 342 341 340 340 343 341 344 345 347 347 347 347 346 346 345 345 345 345 344 343 343 342 342 341 340 340 339 339 338 338 337 336 336 336 336 335 335 335 335 335 335 334 334 336 336 336 337 337 336 337 336 335 336 335 335 335 334 333 332 331 330 327 327 328 326 327 327 328 329 329 331 331 335 338 338 338 337 337 335 335 334 334 335 334
340 341 341 340 339 340 341 341 342 344 345 347 347 346 346 345 346 345 344 344 343 343 342 341 341 340 339 339 339 338 338 337 336 336 336 335 335 334 334 335 334 334 334 335 335 334 335 336 337 336 337 336 336 335 335 334 334 333 332 330 329 327 325 322 323 324 325 327 327 328 329 330 335 335 337 339 337 336 335 334 333 333 332 333 332
341 342 342 341 340 339 340 341 339 341 341 344 344 344 345 345 345 345 344 343 343 343 342 341 340 340 339 339 338 338 337 337 336 336 335 335 335 334 334 334 334 333 334 334 334 334 335 335 336 336 335 335 335 334 333 333 332 331 330 329 327 326 324 323 322 323 324 325 327 328 329 331 334 334 337 336 335 334 332 331 331 332 331 331 331
341 341 342 341 340 339 339 339 337 336 336 338 339 341 343 344 345 344 344 343 343 342 341 341 340 339 339 339 338 337 337 336 335 335 334 334 333 333 333 334 334 333 334 334 334 332 333 334 334 334 335 334 334 333 332 331 330 329 328 327 326 325 324 322 321 321 323 324 325 326 327 329 333 337 336 336 334 332 331 330 330 329 329 329 328
340 341 341 341 341 339 338 337 337 337 338 336 334 337 340 342 343 342 342 342 342 341 341 340 340 339 338 337 336 336 336 335 335 334 333 333 332 332 333 333 333 332 333 333 332 332 332 332 333 333 333 333 333 332 331 329 328 327 326 325 325 324 322 321 320 321 322 324 324 326 328 331 333 334 333 334 331 329 329 328 328 328 328 327 327
339 340 341 340 340 340 339 337 336 337 337 336 336 336 336 338 339 339 339 340 340 339 338 338 336 336 335 334 334 332 332 332 332 332 332 332 331 330 332 332 332 331 331 331 331 331 331 331 332 332 331 332 331 330 329 328 326 325 324 322 321 321 320 320 321 322 323 325 326 326 327 331 332 333 334 332 331 331 330 328 328 326 326 327 326
337 338 339 339 340 339 338 337 337 336 336 336 336 335 333 333 337 337 337 338 337 336 335 334 330 328 328 328 327 327 326 325 325 326 328 330 328 327 330 332 331 330 330 330 330 330 330 330 330 330 330 329 328 327 326 326 325 323 322 320 318 317 318 319 321 322 324 325 326 326 329 330 334 335 333 331 330 331 328 328 326 326 326 326 326
336 337 337 338 338 338 337 337 337 336 336 337 337 335 334 332 333 332 332 333 333 333 331 326 323 322 322 321 322 323 322 322 322 322 321 323 322 324 328 331 330 329 328 328 329 329 329 329 328 327 325 324 320 320 321 323 322 321 320 317 315 314 315 318 320 321 322 323 325 327 330 330 331 333 331 331 331 329 327 325 325 325 326 325 324
333 334 336 338 337 337 337 337 336 336 337 337 338 337 336 334 335 334 333 331 329 326 325 325 325 322 321 322 322 321 321 320 320 322 320 321 322 322 324 328 329 327 327 327 328 327 327 327 326 324 322 319 315 310 311 315 316 317 315 314 312 312 314 316 319 320 321 322 325 327 330 328 328 329 329 328 327 326 326 325 325 325 324 324 323
331 333 335 337 336 337 337 337 337 336 337 337 338 337 337 337 337 336 335 330 328 327 326 324 322 322 321 321 320 320 320 319 319 319 319 319 321 321 323 326 327 326 325 325 325 325 324 324 322 320 317 314 309 307 308 308 309 311 310 310 310 310 312 314 317 319 320 323 325 327 329 329 327 328 328 327 326 324 325 325 324 324 323 323 322
332 333 334 337 337 336 336 338 337 337 337 337 337 337 338 338 337 337 336 333 330 328 325 323 321 321 320 320 320 319 319 319 320 320 319 318 318 317 318 317 318 318 318 318 320 321 320 319 317 314 310 308 306 306 307 307 307 307 307 307 308 308 309 311 313 316 321 323 325 327 327 328 327 327 329 327 327 324 324 324 323 323 322 322 321
334 335 335 336 336 337 336 337 338 337 337 337 337 336 338 338 338 337 336 334 332 328 325 323 321 320 320 319 319 319 318 317 316 316 315 315 314 312 309 308 307 307 309 305 305 306 306 305 305 306 304 305 305 305 306 306 306 306 306 306 306 306 308 310 311 312 317 322 324 325 326 328 329 328 327 326 325 323 324 323 322 322 321 320 320
329 332 334 335 336 337 337 337 338 338 338 338 337 336 337 337 337 337 335 334 333 329 326 323 321 320 320 319 318 318 317 316 315 314 313 313 311 308 306 304 304 304 304 303 302 303 303 303 303 303 303 303 304 304 304 305 304 304 304 304 304 305 307 308 308 309 312 319 322 324 325 327 327 328 327 326 325 324 323 323 322 321 320 320 320
326 331 334 335 337 337 337 338 337 338 338 339 339 337 337 338 338 336 335 333 333 330 327 325 322 320 320 319 318 317 317 316 314 312 311 310 309 307 305 304 302 302 302 302 302 302 302 302 302 302 303 303 303 303 303 302 303 303 303 302 302 304 305 305 305 306 309 313 319 322 324 325 325 325 325 325 325 324 323 322 322 321 319 319 319
325 328 332 334 333 336 337 337 337 337 338 339 338 337 338 337 337 334 334 332 332 331 329 327 324 322 320 319 318 318 317 315 314 312 310 308 307 306 305 303 302 301 302 302 301 301 301 302 302 302 303 303 303 303 302 302 301 302 301 300 301 303 303 303 303 303 304 306 310 318 321 323 322 322 323 324 324 323 322 322 322 321 320 319 318
321 325 329 332 333 333 335 336 337 337 338 339 338 337 338 337 336 335 335 330 334 332 330 328 325 323 322 320 318 317 316 315 313 312 309 307 306 306 305 302 301 300 300 300 301 301 301 302 303 302 303 303 303 302 302 301 300 300 299 299 300 301 301 300 300 300 300 301 305 311 320 322 323 322 322 323 322 322 321 320 320 320 319 318 317
320 322 325 329 332 333 332 334 336 337 338 338 338 337 337 336 336 335 336 329 334 334 332 329 327 325 324 321 319 318 317 315 314 312 310 307 305 306 304 301 300 299 300 299 299 301 301 302 302 301 302 302 301 300 300 299 298 297 297 297 297 297 298 297 296 297 297 299 301 305 311 318 321 321 321 321 322 323 322 320 320 320 318 318 317
318 319 322 325 327 330 331 332 333 334 336 336 337 337 336 336 335 336 335 333 335 334 332 330 328 326 326 321 320 319 317 316 314 313 311 308 307 306 302 301 299 298 299 299 300 301 302 302 301 301 300 300 300 300 299 297 296 295 294 294 294 294 294 294 294 295 296 296 298 299 303 309 316 320 321 320 320 321 321 321 320 319 319 318 317
319 319 321 322 323 326 329 329 331 332 333 335 333 335 335 336 335 335 335 334 334 334 333 332 328 327 328 323 321 320 318 318 315 313 311 309 308 306 302 300 299 298 298 298 299 300 301 300 300 300 300 300 299 298 297 295 293 292 292 291 291 292 292 292 292 293 293 294 295 296 298 301 307 313 317 319 319 319 319 319 319 319 319 318 317
320 320 319 318 321 323 326 327 328 328 330 332 333 333 334 334 334 335 334 333 334 334 333 333 331 328 329 326 322 321 319 318 316 313 310 309 309 307 302 300 299 298 297 298 298 298 299 299 298 299 298 297 296 294 294 293 292 291 290 289 290 289 289 290 290 291 291 291 292 293 294 296 297 303 307 315 317 316 317 317 317 317 317 316 315
318 317 317 319 320 322 325 326 325 326 326 329 330 331 331 333 331 334 332 333 334 334 332 333 332 330 329 327 324 322 320 320 317 314 311 309 310 307 302 300 299 298 298 298 298 298 298 298 298 298 298 297 296 294 293 291 290 290 289 288 288 288 289 289 288 288 289 289 290 290 291 292 293 295 297 304 311 316 314 315 314 314 315 315 314
314 315 318 320 318 321 323 325 323 325 323 325 324 327 328 330 331 332 332 332 332 333 333 333 332 331 330 329 326 323 321 321 318 315 311 310 310 308 304 302 299 298 298 298 298 297 297 297 297 297 297 296 295 294 292 290 289 288 288 288 288 288 289 288 288 287 287 287 288 288 288 289 290 291 292 294 301 309 314 313 313 312 312 312 312
317 317 316 317 318 319 320 323 321 323 323 323 322 324 324 327 330 326 331 330 331 332 331 332 332 332 330 330 328 325 322 322 319 316 313 311 311 308 305 302 300 299 299 298 298 297 297 297 297 298 295 294 293 291 290 289 288 287 287 287 287 288 287 287 287 287 285 286 286 286 286 287 287 289 291 289 292 300 308 311 312 311 311 311 311
317 317 316 316 317 318 318 321 321 322 322 321 319 319 321 324 326 328 329 328 329 331 331 331 331 330 330 329 329 327 324 324 321 318 315 312 312 309 305 301 299 298 298 298 298 298 297 297 297 297 296 293 291 290 289 289 288 287 287 286 286 286 285 285 285 285 285 284 283 283 284 284 287 288 284 286 288 290 300 306 308 310 311 310 310
316 317 317 317 318 317 318 320 321 320 321 320 318 317 318 321 322 325 323 326 327 328 328 329 329 330 330 329 329 327 324 325 322 320 317 314 312 310 305 301 299 298 297 297 297 298 298 297 296 296 295 293 291 290 289 288 288 287 287 286 286 285 284 284 285 286 282 282 282 282 282 282 283 282 283 284 285 287 288 294 300 301 304 309 309
315 315 316 316 316 316 316 316 318 317 317 316 314 313 312 315 317 321 321 322 323 323 325 326 328 328 329 329 329 328 324 326 323 321 319 315 312 309 304 302 299 298 297 296 296 297 297 297 295 294 295 294 292 290 288 288 288 287 286 286 286 284 285 285 284 283 282 282 284 284 282 281 281 281 282 282 283 284 286 286 286 286 291 304 306
313 314 314 314 314 313 313 314 315 315 313 312 311 310 311 315 318 317 318 320 321 320 320 323 325 326 326 327 327 328 326 326 325 322 320 315 312 308 305 302 300 298 297 296 295 296 296 295 295 294 293 292 292 290 289 288 287 287 287 286 286 284 284 283 282 282 283 281 281 281 281 281 281 280 280 280 281 282 283 283 285 284 285 292 300
310 311 312 312 313 314 312 313 312 312 313 312 311 312 312 313 315 318 319 319 318 318 318 319 321 323 323 324 324 326 326 326 325 323 319 314 313 309 305 302 300 298 298 297 296 296 296 296 295 294 292 290 289 289 289 288 286 285 285 285 285 285 286 282 281 281 281 280 280 280 281 280 279 279 279 280 280 280 280 282 282 282 283 281 285
309 310 311 313 313 311 312 313 310 310 313 314 313 312 312 313 316 317 316 316 316 315 316 316 318 319 320 322 322 323 324 325 322 322 318 316 312 308 305 303 301 299 298 298 296 296 296 295 294 293 293 291 289 289 289 289 287 284 282 282 284 284 285 282 281 281 280 280 280 280 280 279 280 279 279 279 279 279 279 280 280 281 281 281 282
309 310 310 309 309 310 310 310 310 310 311 311 311 311 307 306 309 306 316 311 309 311 312 311 313 315 317 319 319 321 322 322 322 320 319 316 314 309 306 304 302 300 298 296 296 295 295 294 293 293 291 291 290 290 289 291 286 285 285 283 281 281 284 281 281 282 281 280 280 280 280 279 279 279 279 279 278 278 279 279 279 280 280 280 280
305 306 307 309 309 309 309 309 309 308 309 308 309 305 304 300 300 303 303 310 311 306 309 307 309 310 313 315 315 317 319 321 321 320 319 317 314 311 307 305 303 301 299 297 295 295 294 294 293 293 292 289 289 288 290 288 287 285 283 282 280 279 278 279 279 281 280 281 280 280 281 279 279 280 279 279 279 279 279 278 279 279 280 280 279
305 307 308 309 310 309 308 308 308 307 307 305 306 304 304 302 301 301 301 304 305 307 308 309 308 309 311 312 313 313 315 316 319 319 316 315 313 310 307 305 304 302 300 297 295 295 294 294 294 293 292 291 288 289 289 288 288 289 284 279 278 278 277 277 279 279 280 280 280 279 281 280 279 279 279 278 278 278 278 278 278 278 279 278 279
305 306 307 308 306 306 305 305 304 304 305 305 305 305 306 305 303 303 301 304 308 307 308 310 309 309 310 311 310 311 313 313 315 316 316 314 313 311 308 306 304 302 301 298 297 296 295 294 294 294 293 293 291 289 288 288 288 288 286 287 282 281 279 278 280 276 280 280 279 280 280 280 278 280 278 278 278 278 280 278 278 278 278 278 278
305 303 302 304 303 303 304 304 304 303 303 303 304 304 303 304 306 307 307 308 309 309 309 310 311 310 309 309 310 310 311 313 313 315 315 313 313 311 309 307 305 303 301 300 297 296 295 295 294 294 293 293 292 289 289 287 288 287 287 286 286 284 282 281 278 278 277 279 279 280 280 280 279 279 279 279 278 278 279 279 278 278 277 278 278
301 300 301 300 302 301 302 303 302 302 302 303 304 305 306 304 304 304 305 305 307 307 305 307 307 307 307 307 307 307 308 310 312 313 314 313 312 311 310 308 306 305 302 300 298 297 296 296 294 294 294 293 292 291 290 289 286 287 287 284 283 282 284 282 282 283 280 278 278 279 279 280 279 279 280 279 279 279 278 278 278 277 277 277 277
298 299 300 299 300 300 301 301 302 302 302 303 304 304 306 305 305 305 304 304 304 304 302 304 304 305 306 306 306 307 306 307 310 312 313 313 310 311 310 308 306 305 302 302 300 298 296 295 294 293 293 293 293 294 293 290 288 289 285 284 283 282 282 278 281 278 278 278 278 278 279 278 279 279 279 279 279 279 279 278 278 278 279 278 277
297 298 298 299 300 300 301 301 301 301 301 302 303 303 304 303 304 303 304 304 302 301 300 302 302 302 305 306 306 306 306 306 307 310 312 313 312 311 310 308 307 305 301 302 300 298 296 295 294 293 293 292 292 292 293 291 289 289 287 285 282 280 281 280 280 278 278 279 279 279 279 278 278 280 280 279 279 279 278 278 278 279 278 278 277
295 296 298 299 299 300 300 301 301 300 300 302 302 303 303 303 304 304 304 304 302 302 300 300 302 303 304 305 305 305 305 305 306 307 309 311 311 310 309 308 307 304 301 301 300 298 296 295 295 294 293 293 292 293 293 292 290 288 287 286 285 283 283 281 280 281 281 278 278 279 279 280 280 278 279 280 280 279 278 278 277 278 278 278 278
Wind_Speed
6 4 3 5 8 10 12 13 13 13 14 14 14 13 13 13 13 12 13 13 13 13 13 12 13 14 14 14 15 14 14 14 14 14 17 18 19 20 19 18 18 17 17 18 19 19 19 19 19 18 19 20 20 21 20 19 20 21 21 20 20 20 19 20 18 19 19 22 22 19 20 19 21 23 23 23 23 22 20 20 17 14 11 17 24
8 4 3 3 7 9 12 13 13 13 14 13 13 14 13 12 12 13 12 12 13 13 12 12 13 13 14 14 15 15 15 15 15 16 17 17 19 20 19 18 18 18 18 19 18 18 19 18 18 19 19 20 20 20 20 20 21 21 21 21 20 19 18 17 16 16 17 19 19 20 20 20 19 20 22 24 24 23 19 20 20 13 10 21 22
6 4 3 4 7 8 10 12 13 13 13 13 13 13 13 12 12 13 12 12 13 13 12 13 13 14 14 13 14 14 14 14 14 15 16 18 20 19 18 18 18 18 18 18 18 19 18 18 18 19 19 20 20 21 21 20 20 21 21 21 19 18 17 16 16 15 14 14 18 18 18 20 20 20 21 22 22 23 19 21 21 18 14 24 21
9 5 3 4 7 8 10 12 13 13 13 13 13 13 13 12 12 12 12 12 12 13 13 13 13 13 13 14 14 14 13 14 15 16 17 18 20 19 18 18 18 18 19 19 19 18 18 18 18 19 19 19 19 20 21 20 20 20 20 19 18 18 17 17 16 15 14 13 12 8 7 9 13 20 21 21 22 22 19 21 21 22 24 22 24
8 5 3 3 4 6 10 11 13 13 13 13 13 13 13 12 12 12 12 12 12 12 13 13 13 13 13 13 12 14 16 14 14 17 18 19 20 19 18 17 18 18 19 19 19 19 20 20 20 20 19 19 20 19 19 20 20 20 20 19 18 18 17 17 16 16 15 13 11 7 4 8 10 20 21 21 21 19 19 20 19 22 23 24 23
8 4 3 3 3 5 9 12 13 13 13 13 13 13 13 13 13 12 12 12 12 12 12 13 13 13 13 13 12 12 16 16 16 17 17 17 20 19 17 17 18 19 19 18 18 19 19 19 19 18 19 18 19 19 18 20 19 20 19 18 18 18 17 17 17 15 14 12 10 6 6 6 6 10 21 21 22 19 22 23 23 22 22 25 24
9 4 3 3 4 5 9 11 13 13 13 13 13 13 13 13 13 12 12 12 11 11 12 12 13 13 12 12 12 13 14 16 17 16 17 19 19 18 17 16 16 18 18 18 18 18 17 17 17 17 18 18 19 18 19 18 19 19 19 19 18 18 17 17 16 15 14 8 6 7 7 9 9 8 22 22 22 22 23 23 23 23 24 24 24
6 4 3 4 4 6 9 11 13 13 13 13 13 13 13 13 12 12 12 12 11 11 11 12 12 12 12 12 12 13 13 15 17 17 18 19 19 18 17 16 17 18 18 18 18 17 17 17 18 18 18 18 18 18 18 18 19 19 19 18 18 17 17 17 15 14 13 8 8 7 7 6 8 9 21 22 23 24 24 25 23 24 25 24 18
7 4 4 4 4 7 9 10 13 13 13 13 12 13 13 12 12 12 12 11 11 11 11 11 11 12 12 12 12 12 14 14 15 15 16 17 18 17 16 16 17 18 18 17 17 17 17 17 17 18 18 18 18 18 19 18 18 19 19 19 18 18 17 16 15 13 8 7 7 8 8 7 8 10 21 25 26 25 23 20 20 24 26 23 24
6 5 4 4 4 7 9 10 13 13 13 13 13 13 13 12 12 12 12 11 11 11 11 11 11 11 12 12 12 12 13 13 12 15 16 16 18 16 16 15 16 16 17 17 17 17 17 17 17 18 17 18 18 18 18 18 18 18 18 18 19 18 17 17 14 10 8 8 8 8 10 11 8 11 21 25 26 25 24 22 18 18 19 24 26
7 5 4 4 4 7 9 10 11 12 13 13 13 13 13 12 12 12 12 11 11 11 11 11 11 12 12 13 12 13 13 14 14 14 14 15 16 15 16 15 16 16 16 16 16 17 17 17 17 18 19 18 19 18 18 18 18 19 19 18 18 17 16 16 13 6 7 8 8 7 10 15 10 10 24 26 26 25 22 25 24 23 26 26 26
7 6 4 4 6 8 10 10 11 12 12 13 13 13 13 13 12 12 12 11 12 11 12 11 11 12 12 13 13 13 13 14 13 13 13 15 15 15 16 16 16 16 16 16 16 16 16 17 18 18 19 19 18 18 18 18 19 19 18 17 16 15 15 14 7 7 7 8 9 8 6 8 10 15 26 25 25 25 26 26 26 27 25 27 27
7 6 5 4 4 8 9 10 10 11 12 13 13 13 13 13 12 12 12 12 12 12 12 12 12 12 12 12 13 13 13 14 14 14 14 15 15 15 15 16 16 16 16 16 15 15 16 17 17 18 18 18 18 18 18 18 18 17 16 16 15 14 13 12 6 7 7 7 6 6 8 8 10 22 22 24 26 24 27 26 26 27 26 27 27
7 6 5 5 4 7 9 9 9 10 11 12 13 12 13 13 13 12 12 12 12 12 12 12 12 12 12 13 13 14 14 14 14 14 14 14 14 14 15 15 15 16 16 16 15 15 16 18 18 18 18 18 19 18 18 18 18 17 16 15 14 13 10 8 7 7 7 7 7 6 6 7 10 20 22 26 26 26 25 26 27 27 27 29 28
9 7 6 5 5 4 9 9 9 10 10 11 11 11 12 13 12 12 13 12 12 13 12 12 12 12 12 13 13 13 13 14 14 14 14 14 14 15 15 14 14 15 15 15 15 15 16 18 18 19 18 18 17 18 18 18 17 17 16 15 14 12 10 6 6 5 6 6 5 7 7 7 20 22 24 27 26 25 24 25 26 26 27 27 29
9 8 7 6 5 4 5 7 9 9 9 10 10 11 12 11 11 12 13 12 13 13 12 12 12 12 12 12 13 13 13 14 14 14 13 13 14 14 14 14 14 15 16 15 15 15 16 18 18 18 18 18 18 18 18 18 18 17 16 15 13 12 11 7 6 6 6 6 5 4 6 10 22 24 26 27 27 25 24 23 24 24 25 26 27
7 7 8 7 5 5 5 5 6 9 8 9 9 10 10 10 11 12 12 12 12 12 12 12 12 12 12 12 12 12 12 13 14 14 13 13 14 14 14 15 14 14 16 16 15 16 17 18 18 18 18 17 18 18 18 18 17 17 15 15 14 13 11 9 6 6 6 5 4 4 7 8 20 26 28 29 28 25 25 25 25 25 26 27 27
6 7 8 7 6 5 5 4 5 5 4 7 8 9 10 10 11 11 11 11 11 11 11 10 10 10 9 9 10 10 11 12 13 13 13 13 13 13 14 14 14 15 15 15 15 16 17 18 18 18 18 18 18 18 18 17 17 16 15 15 14 12 10 10 7 6 6 6 7 6 8 15 25 26 27 29 27 26 26 26 25 24 23 24 26
6 7 6 7 7 6 5 5 4 4 5 5 4 7 11 10 10 10 11 10 10 10 10 9 9 9 9 9 9 10 10 10 10 10 11 10 11 11 13 13 14 15 15 14 15 16 17 17 18 18 18 18 18 17 17 17 16 15 15 14 12 11 12 8 7 8 8 7 7 8 9 21 23 26 27 28 28 26 26 26 25 24 24 25 25
5 6 6 7 7 7 6 5 4 5 4 4 4 4 8 10 9 10 10 10 10 10 9 10 10 10 10 10 10 9 9 9 11 8 10 11 10 8 11 13 14 15 15 15 15 16 17 17 18 18 18 18 17 17 17 17 16 15 14 13 11 12 8 7 8 8 7 7 7 6 14 20 27 26 27 28 27 26 26 26 25 25 25 24 24
4 6 6 7 7 7 7 6 6 6 6 5 5 5 6 9 8 9 10 10 10 10 10 11 10 10 10 10 9 6 5 6 7 6 8 6 9 10 11 13 15 15 16 16 17 17 17 18 18 17 17 18 16 16 16 16 15 15 14 12 12 8 7 7 7 7 7 5 5 8 18 20 25 27 27 26 28 27 25 24 24 24 24 24 24
7 6 6 7 7 7 8 8 6 7 5 4 4 4 5 7 6 6 6 7 8 9 8 6 7 6 9 8 6 5 5 5 6 6 5 6 7 10 11 13 15 14 14 16 16 17 17 17 17 17 16 15 13 8 8 11 14 14 13 12 9 6 6 6 7 6 6 4 7 12 20 23 24 23 24 24 24 24 24 24 24 24 24 24 24
9 8 8 7 7 7 6 9 7 6 6 5 4 5 6 5 6 6 6 7 7 7 6 6 5 6 5 5 6 5 4 4 5 5 5 7 7 10 11 12 12 13 14 16 16 17 17 17 17 16 15 13 9 6 6 6 7 11 11 8 6 6 6 6 6 5 5 5 7 14 19 23 23 21 23 25 24 24 23 23 24 24 24 23 24
9 9 9 7 8 8 9 8 8 7 6 5 4 5 5 6 5 6 6 6 6 5 5 5 5 5 5 5 5 5 5 4 6 9 8 6 7 9 12 13 13 12 14 10 12 15 17 16 16 13 9 6 6 6 6 6 6 6 6 6 6 6 6 5 5 5 5 8 8 15 19 22 22 23 24 25 24 23 22 23 23 22 23 23 23
8 6 6 8 9 9 9 8 8 8 8 6 6 6 6 6 5 5 6 6 6 5 5 5 4 5 5 5 5 5 6 5 4 5 5 5 6 5 5 5 6 7 9 8 7 7 7 7 7 7 6 6 7 6 5 6 6 7 7 6 6 6 6 6 6 6 5 5 9 15 19 22 26 26 25 24 22 21 21 22 21 21 22 22 22
4 7 9 7 9 9 9 7 8 8 8 7 7 7 7 6 6 6 6 6 6 6 5 5 5 5 5 5 6 6 6 5 4 4 4 5 6 5 5 5 5 6 6 7 6 6 6 6 6 7 5 5 6 6 5 5 6 6 6 6 6 6 6 6 6 6 5 5 8 16 17 21 23 24 24 23 22 22 21 20 21 21 20 21 20
7 8 8 7 7 9 9 8 8 8 9 8 7 7 7 7 7 6 7 6 6 7 6 6 5 5 5 6 7 6 6 6 5 4 4 4 5 5 5 5 5 6 5 7 7 5 6 6 6 6 5 6 7 6 6 5 4 7 7 6 5 6 7 6 6 6 6 6 10 15 16 18 22 23 22 21 22 21 21 20 19 19 19 19 19
5 8 8 8 7 10 9 9 9 9 7 9 8 8 7 7 7 7 7 7 7 7 7 6 6 6 6 6 6 6 7 6 6 6 5 3 4 4 5 5 5 5 5 5 7 6 6 6 7 6 7 6 7 6 6 5 5 5 7 5 6 7 7 6 6 6 6 6 5 8 12 16 16 18 20 19 19 20 19 18 18 18 18 18 18
8 9 7 8 9 8 8 11 10 10 8 7 9 8 8 7 7 7 8 8 7 7 7 7 7 6 6 6 6 7 6 6 6 6 5 5 4 4 5 5 5 5 5 5 6 7 6 6 6 6 6 6 6 6 5 5 5 5 7 6 6 7 7 6 6 6 6 5 6 7 16 16 17 19 19 19 18 17 17 18 18 17 17 17 16
12 8 8 9 8 8 8 10 10 11 9 7 7 6 8 9 8 8 7 8 7 7 8 7 7 7 7 6 7 6 7 7 7 6 6 5 4 3 5 5 5 5 5 6 5 6 7 6 6 6 7 6 6 6 5 5 5 5 5 7 6 6 5 6 6 6 5 6 5 8 14 11 16 17 18 17 17 17 18 17 16 15 16 15 15
7 11 10 9 8 9 10 9 8 8 8 8 8 8 6 8 7 7 8 8 7 7 8 8 7 7 8 8 7 7 7 6 7 7 6 6 5 4 5 5 5 5 5 6 5 6 6 6 6 6 6 6 6 5 6 6 5 6 5 6 6 5 6 5 5 5 6 5 5 5 9 15 12 9 14 16 15 16 16 16 16 16 15 14 14
11 14 11 7 8 11 11 9 7 7 8 9 6 8 8 7 8 6 6 9 8 7 7 8 8 8 8 9 8 8 7 7 8 8 8 8 6 5 5 5 6 5 5 6 6 5 6 6 6 6 6 6 6 5 4 6 6 5 5 6 5 6 5 5 5 5 5 5 6 6 6 8 13 15 10 14 15 14 14 15 15 15 15 14 14
10 8 7 7 11 10 10 10 8 7 9 9 9 6 6 5 7 9 7 8 9 8 7 8 9 9 8 9 9 9 8 8 7 9 9 9 8 7 6 4 6 6 6 6 6 6 7 7 7 7 7 7 7 6 5 5 6 5 5 5 5 6 5 5 5 5 6 5 5 5 6 6 7 12 16 11 10 13 14 13 14 14 14 14 13
7 6 6 10 9 7 8 8 9 10 10 8 7 8 6 6 4 7 6 8 8 8 7 7 9 9 9 10 10 10 9 8 8 8 9 9 9 8 8 6 5 6 7 6 7 6 7 8 9 8 7 7 7 6 6 6 4 4 5 4 5 5 4 6 5 5 4 5 4 6 6 6 7 6 7 13 13 10 11 11 12 13 14 14 12
7 7 11 10 7 9 8 8 9 10 9 9 8 8 7 7 6 5 6 6 7 7 8 8 6 7 8 8 9 9 10 9 9 9 9 8 9 9 8 8 7 7 7 6 7 5 6 8 7 9 7 6 7 6 6 5 5 5 4 3 6 5 5 6 5 5 5 4 5 5 6 6 6 6 6 6 10 13 10 12 12 10 9 10 10
12 10 7 6 9 8 8 9 8 10 10 10 8 7 8 7 7 6 6 6 7 7 6 7 9 9 10 9 11 10 9 10 9 9 9 8 8 9 9 8 10 8 7 7 7 8 6 6 5 8 10 7 7 6 5 6 5 5 4 4 4 4 5 5 5 4 4 4 5 5 6 6 6 6 5 5 5 8 15 13 10 9 10 9 9
10 9 10 8 9 9 10 10 11 12 10 9 7 6 6 7 7 7 8 7 6 8 7 5 6 7 7 9 11 12 12 10 10 10 9 10 8 7 7 10 10 10 9 8 8 7 8 7 6 5 8 10 8 8 6 5 6 5 4 5 4 4 5 4 4 4 3 5 4 5 5 5 5 6 5 5 5 5 9 13 13 14 10 8 8
9 10 10 12 12 11 11 12 10 9 10 9 8 7 7 6 6 6 6 8 8 6 5 6 6 7 7 7 7 9 10 13 12 10 9 10 10 9 8 8 8 9 9 9 8 7 7 8 8 5 7 10 9 10 8 7 6 5 6 6 5 5 4 4 3 3 5 4 4 5 4 4 5 5 4 4 4 5 5 8 11 12 13 13 8
8 9 8 9 7 8 8 9 10 8 8 7 6 5 4 4 4 5 6 6 6 5 5 6 7 6 7 8 9 9 10 9 9 11 10 10 9 9 9 11 8 8 9 9 8 8 8 7 9 8 5 6 10 9 9 8 8 7 6 5 5 5 4 3 4 5 5 3 3 3 3 5 4 4 3 3 4 4 4 5 5 5 7 13 14
7 7 8 7 8 7 7 7 8 8 5 5 5 5 5 5 6 3 5 7 6 6 5 6 6 6 6 7 8 9 11 13 13 11 9 9 10 11 11 10 9 9 10 10 10 10 12 11 9 12 10 6 5 9 10 10 8 8 6 7 5 4 4 3 4 4 3 3 3 2 4 3 5 3 3 3 4 3 4 4 5 5 5 8 12
6 7 8 8 10 11 10 11 8 6 8 8 6 7 7 5 3 7 8 5 5 5 5 6 6 6 6 6 6 6 7 9 10 11 10 9 9 9 11 12 10 10 11 12 12 12 11 10 9 7 11 11 6 6 7 10 12 7 5 6 5 3 3 3 4 3 3 3 2 2 2 4 3 2 2 3 3 3 3 4 4 5 5 5 6
9 8 11 13 9 7 10 10 6 7 8 9 8 7 6 6 7 7 4 3 4 5 6 5 6 6 6 6 6 5 6 8 7 9 10 10 8 8 10 11 11 10 10 8 9 10 11 10 10 8 5 11 9 10 9 10 4 8 9 4 4 2 1 2 2 2 2 2 2 2 2 1 0 0 2 4 2 2 2 2 3 4 4 4 3
7 10 8 6 7 8 8 7 8 8 8 7 7 6 3 2 3 2 5 2 0 0 2 2 3 5 6 6 6 6 7 7 7 8 10 12 12 13 13 13 13 11 10 10 11 12 12 15 15 13 10 5 5 8 11 7 7 5 5 8 2 2 2 1 0 0 0 0 1 1 0 0 1 1 2 3 1 1 1 1 3 3 3 2 2
5 5 7 9 7 8 7 7 8 6 6 5 6 3 5 5 5 4 3 3 3 1 0 1 2 3 6 4 4 5 6 7 8 9 9 11 12 13 10 11 13 12 12 12 12 13 12 12 11 11 13 12 8 11 12 6 8 14 8 3 4 4 0 7 3 1 1 1 1 2 1 2 1 1 2 2 1 0 0 1 1 2 1 0 1
7 8 8 9 8 10 8 7 7 7 5 5 6 6 6 5 5 5 3 3 1 1 2 5 4 4 4 5 4 2 3 4 7 10 9 9 9 8 9 10 10 11 10 11 12 14 15 15 15 13 15 16 13 9 12 7 10 4 7 8 3 1 7 4 6 3 2 2 3 3 3 3 3 1 2 2 1 1 1 1 1 1 1 1 0
8 8 7 6 5 5 5 5 4 4 5 5 5 6 6 8 6 5 4 4 6 5 9 10 7 7 8 3 3 4 3 3 3 5 8 10 11 11 12 12 11 10 10 12 12 11 12 14 15 14 16 12 15 13 13 8 9 10 5 1 3 7 9 6 8 6 0 4 3 4 4 4 3 2 2 3 3 4 3 3 2 3 2 1 1
9 4 4 4 4 4 4 5 5 4 4 5 6 6 5 6 9 10 9 10 10 8 6 5 6 6 4 6 5 4 4 4 4 5 6 7 9 11 12 13 14 14 12 11 12 14 14 15 14 13 13 12 10 13 16 14 4 10 8 4 2 2 7 12 8 6 1 4 4 5 6 5 4 4 4 5 5 4 4 3 4 4 3 2 2
2 3 3 3 4 4 5 5 5 6 6 6 7 8 9 8 8 8 8 8 9 9 7 6 5 5 6 6 5 5 4 4 5 5 6 7 8 8 9 9 10 10 11 12 13 12 10 9 13 14 12 10 13 14 15 13 16 14 12 7 3 1 7 1 7 15 8 9 8 2 3 6 5 6 6 7 7 7 6 5 5 4 4 3 3
2 4 4 4 4 5 5 5 6 6 6 8 8 8 8 9 9 8 8 8 7 7 4 5 6 5 6 5 6 6 5 5 5 5 6 7 8 9 10 9 10 10 10 9 10 11 15 15 14 12 12 11 11 10 9 11 13 12 10 7 4 2 4 2 2 3 5 6 3 8 7 1 3 7 7 7 6 6 6 6 4 4 4 4 4
3 4 4 5 5 5 6 7 7 6 6 7 8 8 8 7 8 8 10 9 6 4 3 5 5 5 6 6 6 6 6 6 6 6 7 8 9 9 10 12 12 11 10 12 12 13 14 14 15 16 15 14 11 11 13 13 13 10 11 8 6 4 1 0 3 2 2 1 8 11 10 12 11 11 8 8 8 6 5 5 4 4 5 5 4
3 4 4 5 5 5 6 6 6 5 5 7 8 9 8 7 9 9 11 10 7 6 6 5 5 5 7 7 7 7 6 7 6 7 7 8 9 10 10 11 11 10 11 11 12 12 12 12 12 11 12 14 11 12 9 9 11 9 8 8 11 12 13 11 11 10 7 5 2 5 7 12 14 4 8 8 7 7 6 6 6 6 6 6 5
Wind_Direction
205 182 199 194 167 145 137 131 129 126 119 116 114 110 105 100 97 92 88 84 83 81 81 82 82 82 82 82 84 88 85 87 90 92 89 88 87 84 82 82 83 82 84 84 79 75 76 78 78 78 79 78 72 70 71 74 76 77 78 77 72 67 62 61 61 63 66 68 70 68 66 69 74 72 70 71 73 69 67 66 64 62 59 65 68
166 185 175 187 169 143 141 134 129 127 121 118 114 111 106 104 103 98 93 91 88 86 86 86 85 84 84 83 85 90 95 92 93 81 87 89 87 86 87 86 85 85 85 83 77 77 77 76 76 74 78 82 81 78 75 75 77 79 81 78 74 66 62 59 52 49 61 74 77 74 70 71 72 75 74 71 71 72 71 71 71 69 69 70 68
139 156 175 187 166 147 142 136 134 129 123 120 116 111 109 108 106 104 100 96 94 95 90 85 85 88 90 92 93 92 95 102 95 87 87 89 87 86 86 87 87 88 88 84 80 79 76 76 75 75 74 81 84 80 77 77 78 82 84 80 71 63 60 57 53 50 46 48 69 71 74 74 73 77 76 74 74 74 74 72 71 74 77 75 74
146 161 163 181 158 146 148 143 136 130 125 121 119 116 114 111 108 105 103 100 97 96 96 93 92 91 90 94 95 95 90 77 84 86 87 88 88 88 88 89 91 93 90 84 83 82 79 81 84 82 80 81 85 84 81 81 83 83 81 72 59 57 55 53 51 50 44 44 41 38 67 73 76 77 80 79 77 75 74 75 76 77 77 77 77
147 154 157 162 152 152 149 140 137 131 127 125 123 121 118 115 110 106 105 102 101 101 100 100 99 94 92 90 92 94 83 81 87 90 88 92 93 90 90 93 96 95 92 88 86 83 82 83 86 86 87 86 81 81 82 82 82 82 80 69 57 54 53 52 50 47 45 44 41 39 45 83 90 85 86 87 87 85 84 82 79 74 70 71 72
151 150 151 144 145 152 147 142 140 135 133 131 127 126 123 119 115 111 106 105 103 102 100 100 99 95 96 95 92 89 86 82 82 87 93 91 90 91 91 93 95 95 92 90 87 85 84 84 87 87 86 83 84 84 84 82 80 77 73 67 60 57 53 49 48 46 44 43 40 37 36 38 49 77 82 83 79 70 73 73 73 75 74 74 74
150 146 144 141 140 152 149 147 142 139 138 135 132 129 127 123 119 115 110 106 104 101 99 99 99 97 94 93 94 92 91 84 88 91 90 87 87 88 89 91 94 96 93 89 87 86 84 83 84 85 85 84 81 83 84 86 83 76 71 67 63 58 54 50 46 44 43 41 44 43 49 65 70 78 84 82 80 79 77 76 74 73 72 70 69
144 145 142 141 142 156 155 152 146 143 140 138 136 133 130 125 121 117 113 109 106 104 103 101 100 98 95 93 90 92 99 95 88 87 87 86 86 87 90 94 97 98 96 90 86 85 85 83 85 87 88 88 87 85 86 81 77 74 72 72 68 62 56 51 45 43 41 47 45 50 53 62 81 85 82 81 77 73 72 71 72 71 71 71 69
151 151 144 140 154 161 159 152 150 147 142 141 138 136 131 127 122 119 116 111 110 108 104 102 102 100 97 95 92 91 101 97 91 89 87 87 87 87 90 95 100 101 96 91 87 84 85 84 84 85 86 88 90 89 88 85 81 77 76 74 69 64 59 53 47 42 39 40 49 58 56 54 69 80 82 79 76 71 68 68 67 70 70 71 72
151 147 148 146 161 167 159 157 153 151 145 143 142 139 134 130 126 123 120 115 112 112 108 105 102 100 99 96 94 92 91 96 99 95 90 85 85 88 91 96 100 100 96 93 87 84 85 85 88 87 88 88 86 86 86 86 84 79 76 72 70 66 63 59 51 46 48 45 51 60 68 72 72 83 85 81 77 75 73 75 75 72 72 68 69
153 153 151 154 165 169 162 162 155 152 147 147 146 142 138 136 133 129 124 120 118 116 112 109 107 104 103 101 97 94 92 93 92 94 93 91 93 94 94 98 102 101 98 94 90 89 84 84 88 92 89 88 86 86 86 85 85 81 79 76 70 66 65 68 65 48 45 48 50 53 75 80 76 76 88 86 84 81 79 77 75 73 72 71 68
155 157 157 158 167 167 167 161 155 152 150 151 149 146 143 141 137 132 128 124 122 118 115 111 110 109 108 106 105 102 100 99 101 102 102 101 98 96 95 99 104 102 98 93 90 88 84 88 90 91 89 87 85 86 85 85 84 82 77 72 69 65 68 68 56 56 55 54 59 64 47 50 77 87 85 85 82 79 76 71 71 71 69 68 65
159 161 159 161 167 172 168 162 158 154 154 156 154 150 147 144 141 136 132 128 125 123 121 120 117 115 112 110 109 106 105 102 101 100 99 98 96 96 97 100 104 104 101 94 90 87 88 91 95 95 92 88 89 89 87 85 77 73 69 68 64 61 64 60 56 56 60 61 64 63 69 72 76 79 85 85 81 78 74 72 67 66 64 66 64
157 164 161 164 168 176 166 160 161 158 160 161 157 154 152 149 145 141 137 133 130 129 127 124 121 118 114 112 110 108 107 108 107 107 106 104 102 99 98 102 107 107 104 98 90 90 91 93 96 97 94 91 89 84 80 75 73 69 64 61 57 56 47 55 53 62 64 66 64 62 68 78 90 91 83 81 78 74 72 70 65 64 64 63 63
163 166 163 162 168 174 168 162 164 164 165 162 157 157 157 153 149 146 142 137 135 133 131 128 125 122 120 116 113 111 109 110 110 106 104 102 103 105 104 105 110 110 107 97 91 91 93 94 96 96 91 85 80 77 73 71 68 65 63 60 57 53 52 59 57 54 56 60 63 67 62 76 85 80 79 77 75 73 72 73 69 66 66 65 65
167 165 162 164 166 164 164 167 167 167 168 163 157 161 161 155 154 149 145 142 138 136 134 131 128 126 123 120 118 115 114 111 109 106 104 104 104 106 105 107 114 113 105 98 94 95 93 95 94 90 87 85 82 77 74 71 68 65 61 58 55 52 55 61 59 57 59 60 64 68 83 82 86 83 79 78 76 75 73 75 73 70 68 68 68
172 163 163 165 164 164 160 164 172 171 167 162 163 163 158 160 157 151 147 144 140 138 136 135 130 127 125 121 118 115 114 113 110 109 107 106 108 109 110 110 112 114 102 95 95 96 97 94 93 92 89 85 83 80 76 71 68 64 61 58 56 53 52 55 56 50 47 44 49 54 67 82 86 83 80 78 75 74 75 74 75 76 73 71 71
168 170 169 165 165 165 161 163 166 169 163 159 168 163 159 163 160 152 147 144 143 139 135 133 132 124 116 109 109 110 112 113 112 112 112 109 111 113 112 112 113 112 107 106 102 102 100 99 94 93 89 85 82 80 76 73 68 63 59 57 55 50 50 56 58 49 46 50 51 62 84 92 85 83 82 79 79 80 81 79 78 77 76 76 75
168 176 174 168 170 164 165 158 164 161 161 159 163 166 162 163 160 153 147 145 141 137 135 131 120 113 110 109 107 103 102 101 101 102 108 106 107 109 113 114 114 115 113 110 109 105 104 102 100 95 91 84 81 78 76 72 68 63 61 56 52 51 54 56 57 61 62 62 68 74 84 85 86 85 83 82 82 83 81 82 82 81 79 77 76
173 177 178 181 171 168 166 157 151 154 152 162 163 162 165 160 159 152 149 146 140 138 132 123 120 115 107 101 99 97 94 96 98 98 101 104 105 111 116 116 115 114 115 112 111 111 107 105 101 97 91 83 76 72 71 71 68 65 60 57 52 54 53 55 61 64 68 70 73 83 91 92 87 85 85 85 84 82 83 83 82 82 81 80 78
158 187 181 181 178 171 156 167 173 152 160 142 161 160 166 158 155 153 150 143 141 136 126 120 116 114 112 107 99 96 101 101 95 100 99 106 116 117 119 119 116 115 119 117 110 108 108 105 101 93 85 80 71 64 61 67 66 64 60 55 54 53 49 56 63 69 70 71 80 88 88 85 84 84 86 86 85 86 85 83 84 83 81 79 78
179 181 184 187 178 180 178 165 160 168 161 157 159 155 156 159 155 154 149 142 136 127 128 129 125 121 120 113 109 105 104 105 105 104 107 110 113 118 118 118 119 112 111 105 101 98 98 96 90 88 85 80 73 67 58 57 59 60 56 54 55 51 46 56 65 72 75 67 72 92 91 86 84 86 87 85 85 85 85 84 80 79 80 78 78
195 188 187 188 181 181 165 178 166 168 167 159 155 148 159 158 160 158 149 142 137 134 133 132 132 131 124 119 115 111 107 105 109 114 112 109 113 115 115 114 108 102 103 101 98 96 95 94 90 86 81 75 70 68 64 64 58 55 54 53 54 46 48 50 56 58 65 69 85 87 89 88 87 86 86 87 87 85 84 84 83 81 80 79 79
192 191 187 187 184 187 180 183 178 172 174 167 155 138 162 159 163 161 151 145 143 140 137 138 138 136 129 123 120 116 107 104 110 110 108 110 102 84 88 90 87 84 86 84 84 89 91 86 86 82 73 71 75 66 72 66 66 64 60 54 55 48 49 45 45 37 61 88 98 96 91 91 90 90 89 86 87 90 90 87 84 83 82 81 80
191 177 183 189 189 184 185 189 182 182 179 176 168 155 165 160 169 162 156 152 149 144 145 143 147 141 134 128 124 121 116 111 115 111 114 114 101 99 90 88 94 93 91 90 87 80 79 84 77 71 68 74 78 63 68 76 66 72 67 55 57 50 50 43 40 42 43 78 97 95 96 96 94 92 91 93 91 86 85 87 89 89 87 85 83
167 189 193 192 191 184 186 189 187 185 184 180 180 175 174 156 166 164 160 160 153 152 153 151 150 149 142 136 127 123 124 121 119 120 121 122 114 110 104 105 101 103 100 103 96 95 88 88 87 82 74 71 75 71 55 69 83 77 75 61 55 54 51 46 38 39 30 55 90 95 96 95 96 96 96 96 95 94 93 90 89 90 91 90 87
199 204 192 196 193 184 190 188 190 189 188 180 178 174 182 178 172 167 166 169 159 159 165 162 159 157 151 149 142 141 137 134 130 130 133 124 122 123 121 116 113 110 111 114 105 99 100 97 94 91 90 85 77 71 61 56 65 86 77 71 63 65 59 51 44 39 41 41 81 88 96 98 100 100 99 98 99 99 98 96 94 95 92 89 88
209 208 200 190 196 189 191 188 189 189 194 181 181 181 180 176 175 166 173 172 164 167 168 168 159 164 162 160 149 147 147 144 143 143 149 129 128 121 122 117 113 109 108 111 115 108 104 101 103 97 97 90 92 81 76 66 53 69 83 71 73 70 63 57 50 45 39 46 20 88 96 101 101 106 102 104 105 105 105 103 99 92 88 90 89
220 214 209 201 201 190 190 194 186 189 195 189 183 183 180 177 174 176 179 172 177 173 169 162 166 168 168 162 156 148 149 146 150 151 142 144 131 129 125 121 118 120 119 109 118 121 114 117 112 108 101 99 94 84 73 66 61 62 81 72 67 71 69 62 51 46 43 33 43 51 99 100 103 101 104 106 105 102 100 102 102 100 98 94 88
216 209 209 213 203 195 197 200 188 185 191 197 190 185 183 179 185 180 180 173 185 177 167 171 174 169 172 172 167 159 160 159 154 151 150 150 144 132 126 128 125 133 126 125 131 122 124 117 112 108 105 98 93 87 85 73 61 56 60 80 65 63 64 63 53 47 38 39 31 45 42 87 110 108 109 112 109 107 106 105 101 95 92 91 93
197 213 213 210 201 198 207 204 192 181 187 198 193 190 195 184 179 184 177 182 182 176 176 175 177 179 175 170 171 168 160 162 158 157 154 149 147 141 140 133 127 136 133 126 129 121 118 116 118 118 116 111 100 102 100 87 76 61 51 69 67 62 62 53 54 48 47 32 38 36 43 41 44 99 118 111 111 112 109 107 106 105 102 95 92
202 215 210 195 198 208 207 208 198 186 195 196 197 188 193 199 181 189 191 177 181 186 182 178 182 183 178 176 174 171 173 170 166 162 158 155 151 151 154 147 144 142 138 132 126 120 120 114 106 102 103 103 100 86 82 98 83 70 64 64 55 67 58 49 58 48 47 40 37 34 41 34 35 33 61 114 117 113 111 111 109 107 104 102 100
222 218 196 187 204 204 206 206 198 193 199 200 197 201 190 202 190 181 187 184 184 186 190 184 183 186 182 181 179 174 179 173 178 167 164 162 156 155 159 162 154 146 141 136 126 124 122 119 109 112 110 106 102 92 83 78 87 75 73 64 65 65 50 53 48 47 44 43 33 39 40 36 37 32 31 37 101 116 120 115 116 112 105 102 102
213 204 187 205 199 199 203 201 201 201 202 203 199 195 202 202 202 183 180 187 181 189 194 192 182 187 189 185 183 179 181 179 175 176 167 164 162 161 160 159 159 149 140 139 135 140 135 132 133 126 126 124 118 115 109 93 66 68 65 67 72 62 60 63 46 41 41 45 31 46 38 45 38 35 24 24 32 85 106 116 115 112 116 116 108
199 196 204 205 184 197 192 203 198 203 198 203 200 198 193 202 200 197 182 196 183 194 195 187 188 184 187 193 190 182 184 180 180 173 174 170 166 161 164 163 156 153 147 149 142 139 138 141 143 131 126 115 114 107 107 92 93 82 66 58 67 64 48 58 52 42 44 35 48 42 45 44 39 37 29 21 31 28 77 106 100 97 96 107 110
209 207 202 186 197 196 193 201 194 200 199 199 199 196 190 194 199 200 193 198 193 197 207 196 187 188 188 190 190 190 188 182 183 176 172 172 172 172 165 158 158 155 152 149 148 147 144 138 144 139 129 119 116 104 90 97 76 79 61 57 55 63 71 46 55 57 25 46 50 45 45 46 40 38 29 27 24 31 36 46 72 100 112 112 116
206 199 196 190 198 196 194 199 199 200 197 194 190 191 188 193 195 197 198 198 206 200 199 200 197 189 188 197 192 185 184 185 184 181 176 173 172 170 164 163 161 157 156 156 154 153 148 146 144 143 135 131 123 112 92 82 84 71 58 54 38 53 62 46 59 53 31 58 48 49 49 42 39 38 31 25 29 31 31 40 43 37 42 81 85
206 204 198 192 197 191 193 199 201 198 195 192 189 187 192 191 197 198 195 201 208 210 203 197 208 198 184 196 192 190 193 183 182 184 184 177 172 166 158 165 165 158 155 157 156 149 147 149 141 142 142 135 133 131 124 110 98 83 62 39 26 41 43 44 42 44 51 54 46 52 46 46 49 37 29 29 36 34 36 31 35 31 27 37 59
206 204 198 201 192 192 193 200 197 192 194 185 184 182 178 194 202 197 203 209 210 207 203 209 208 206 201 196 193 191 190 196 189 183 179 172 166 162 162 167 167 162 154 153 150 150 150 154 147 138 138 140 140 138 134 130 115 103 78 45 32 21 26 48 42 48 41 39 58 52 48 42 50 36 24 34 34 40 48 43 42 39 24 31 31
202 196 199 192 195 192 194 197 199 189 175 166 158 171 169 187 198 211 223 216 208 205 212 217 212 217 207 197 202 202 194 190 183 184 183 176 172 168 166 167 168 164 161 159 160 163 162 160 159 148 142 124 125 136 136 124 102 91 93 85 55 17 22 34 45 38 32 29 25 34 60 47 55 32 27 34 40 41 51 47 49 44 39 23 24
199 193 191 197 195 193 180 198 193 175 171 172 176 174 180 189 214 207 213 198 206 207 214 216 221 223 211 205 204 206 196 195 190 177 176 174 172 165 166 172 170 170 172 175 169 163 159 154 147 152 147 140 142 152 147 135 123 87 70 74 68 26 16 32 42 37 25 7 6 45 35 65 41 37 26 38 40 40 42 49 51 52 47 35 14
210 187 196 200 194 182 191 195 169 182 188 186 179 181 187 188 181 196 192 177 194 202 221 221 223 224 218 211 204 206 200 195 188 175 167 169 166 167 170 175 175 177 177 168 161 154 151 151 151 145 170 156 157 168 168 138 136 153 147 130 46 29 23 36 36 19 24 13 4 41 35 58 69 83 55 52 33 32 36 46 62 63 54 42 16
189 196 199 180 188 191 196 184 183 184 193 182 169 182 152 100 148 146 171 140 56 187 289 273 244 233 227 217 208 201 199 196 187 187 180 182 182 177 181 176 180 172 165 167 167 166 168 166 170 163 158 165 145 178 181 197 126 108 95 92 152 118 265 356 358 6 9 2 18 49 38 258 235 93 66 64 44 28 27 45 77 77 58 45 29
184 192 191 194 189 195 191 186 186 186 179 180 162 122 111 93 78 108 101 136 182 156 228 352 269 268 251 237 226 206 206 197 188 191 196 193 190 187 179 181 178 177 174 169 174 173 170 172 176 171 155 151 172 189 206 187 158 140 160 177 153 120 316 251 214 253 137 269 233 220 214 229 247 82 75 113 225 302 335 45 92 107 100 60 14
201 197 193 194 194 195 190 182 176 180 171 159 155 136 118 91 88 67 70 77 53 134 233 251 231 242 267 246 236 218 228 223 193 189 188 191 185 176 171 176 181 177 174 174 176 181 177 175 175 173 178 169 175 185 200 198 196 213 124 132 102 252 215 188 133 270 162 219 260 237 227 221 230 187 143 213 273 254 233 192 200 222 200 199 332
210 208 196 195 180 176 167 165 155 157 166 163 154 150 160 155 143 141 163 186 211 195 213 219 211 218 223 231 249 217 215 230 212 204 196 181 186 187 179 174 181 184 184 181 178 174 183 182 186 183 185 189 174 170 188 210 210 216 224 324 171 173 170 187 144 222 29 217 228 220 231 223 217 203 187 206 223 225 212 204 212 213 211 225 259
221 177 176 175 161 155 162 162 162 154 149 157 158 153 157 174 186 195 199 202 212 223 216 214 212 219 212 226 233 232 229 219 223 203 200 202 191 188 189 188 183 182 185 181 182 187 189 189 181 187 194 182 171 181 187 187 190 243 239 213 43 282 155 137 191 85 194 260 224 210 240 232 227 209 206 213 215 214 219 206 211 208 215 215 215
173 145 153 144 159 153 152 160 157 161 169 164 174 179 181 188 194 205 207 213 212 220 191 201 190 186 209 223 230 241 229 226 224 215 209 199 195 196 193 190 191 193 184 190 188 184 184 196 194 191 188 189 188 189 186 171 180 208 210 221 275 349 200 355 162 173 163 173 217 246 259 219 223 227 210 209 207 208 206 211 206 210 208 214 205
140 156 156 148 144 148 154 158 171 169 175 177 180 193 195 192 196 198 215 224 220 222 188 190 187 183 208 214 221 232 237 236 228 223 214 208 199 197 193 193 193 191 191 196 191 186 188 187 190 190 191 192 192 195 174 187 198 203 170 207 134 153 195 350 154 42 138 151 194 188 204 158 244 241 227 212 213 209 208 205 203 200 205 205 207
160 144 142 143 153 153 161 168 183 179 178 183 189 196 200 191 199 206 216 224 216 226 183 200 201 184 210 214 220 225 228 236 236 233 226 214 205 202 197 195 195 193 192 198 192 191 194 196 195 192 191 190 191 192 193 196 202 205 196 165 150 117 88 12 187 154 35 133 168 193 194 184 203 223 192 211 209 210 210 203 206 206 207 208 204
158 151 154 161 162 164 166 178 190 180 182 190 190 199 200 199 208 208 214 219 209 203 207 218 202 202 215 216 214 224 221 224 227 232 229 220 211 203 202 201 198 193 192 197 197 196 195 195 193 196 193 192 192 197 204 209 207 207 193 178 185 177 179 180 188 192 179 163 122 205 188 199 209 171 212 194 199 208 206 200 206 210 205 208 201